Theta_e
318 317 317 317 313 310 320 311 312 310 309 310 308 309 308 306 305 306 306 307 310 315 321 324 328 329 329 330 333 334 334 334 333 333 333 331 329 328 329 329 328 328 327 327
315 319 315 311 310 310 310 311 311 310 309 310 308 308 308 305 305 304 303 302 304 307 306 309 315 324 328 328 329 333 334 334 334 333 333 332 330 328 328 329 328 328 327 327
316 312 310 310 311 311 309 312 309 311 309 308 308 309 309 308 306 306 304 302 302 306 306 304 307 312 322 326 328 331 333 334 334 333 332 331 330 327 327 328 328 328 329 329
315 311 310 310 311 311 312 307 309 309 309 310 307 309 305 307 307 306 305 302 303 302 304 305 307 310 313 318 325 329 331 333 333 333 332 331 329 327 326 327 329 328 327 326
316 312 310 311 311 309 311 307 308 309 308 308 307 306 305 305 306 305 305 304 302 301 303 305 308 310 312 312 313 318 327 330 332 332 332 331 329 326 327 328 327 326 324 324
314 311 310 310 309 309 308 309 308 308 307 308 308 307 306 304 306 307 305 304 303 303 304 307 309 311 312 312 311 309 313 328 331 331 331 332 329 326 326 325 323 320 318 316
314 313 309 310 314 311 309 310 312 312 311 312 304 305 310 304 303 305 307 306 303 304 305 306 306 308 311 312 311 309 310 319 330 331 331 330 328 326 324 322 319 315 312 312
315 318 310 309 313 313 310 311 312 313 313 308 304 307 307 305 304 303 303 304 303 305 305 305 305 307 310 311 310 312 317 321 327 330 330 329 326 322 321 318 315 315 312 305
311 312 307 307 308 312 311 311 308 308 300 309 305 304 303 304 308 308 305 305 305 306 305 305 304 306 308 310 311 314 317 320 324 327 327 324 322 320 317 314 310 306 300 298
307 310 308 308 309 308 309 309 311 308 311 308 305 304 305 305 307 307 307 306 305 305 304 303 303 304 306 308 309 311 313 318 319 320 318 320 319 315 311 305 301 298 296 294
306 310 310 308 310 314 311 307 306 309 309 311 307 305 302 304 306 307 308 306 305 305 304 303 302 303 304 305 306 308 309 310 311 312 312 315 311 304 301 298 296 294 293 292
308 308 310 310 308 307 310 307 307 311 308 305 307 306 304 301 301 306 306 305 304 304 303 301 301 301 301 302 303 304 305 306 307 307 307 304 300 297 295 294 293 292 292 291
309 310 310 311 309 308 308 308 306 305 306 310 310 309 303 304 304 304 306 305 305 303 301 299 299 299 300 300 301 302 302 302 302 301 300 297 295 294 293 292 292 291 290 290
309 310 310 311 309 309 310 307 306 309 308 308 307 307 306 305 305 306 306 306 305 303 303 301 298 297 298 300 300 299 299 299 297 296 295 294 293 292 291 291 290 290 290 289
308 309 308 309 308 309 309 310 307 307 309 309 309 305 305 304 304 305 306 305 304 303 303 302 299 298 298 298 298 298 297 296 295 294 293 292 291 291 290 290 290 289 288 287
306 303 308 308 310 308 308 308 309 309 309 307 305 304 302 303 304 306 306 306 306 305 304 302 300 299 297 297 296 296 296 295 294 293 292 291 290 290 289 289 288 287 287 287
309 305 302 301 307 308 311 309 307 308 308 309 307 307 303 303 304 305 305 306 307 306 305 303 302 300 299 297 296 295 295 294 293 292 291 290 289 289 288 287 287 286 286 287
310 310 306 304 302 310 310 306 307 307 307 307 307 305 303 304 303 304 305 306 307 306 306 304 303 301 300 298 296 295 294 293 292 291 290 289 289 288 287 287 286 286 286 286
307 311 316 316 299 307 310 310 306 306 307 305 305 306 303 304 305 304 303 305 307 306 306 305 304 303 300 297 296 295 293 292 291 290 290 289 288 287 286 286 286 286 286 286
306 311 314 313 316 311 309 307 304 307 312 307 304 304 303 304 306 307 303 304 305 306 306 306 305 303 299 296 295 293 292 290 289 290 289 289 288 287 286 286 286 286 286 286
304 306 315 315 313 305 304 304 306 313 311 302 305 305 302 305 308 304 304 302 304 305 305 305 304 301 299 295 293 292 291 289 291 290 289 288 287 286 285 285 285 285 285 284
308 307 311 305 314 314 301 303 310 307 301 305 305 304 303 302 300 302 301 301 300 299 302 304 301 300 297 293 293 292 290 290 290 290 288 286 285 284 284 284 284 283 283 283
309 307 307 310 310 302 300 302 299 299 299 299 303 302 302 303 302 301 300 298 297 298 299 300 299 295 293 292 293 292 290 290 290 288 287 285 283 283 283 283 283 282 282 282
302 301 304 305 304 303 300 298 297 298 298 298 299 299 300 301 299 299 296 295 294 293 294 296 295 291 290 291 292 292 289 290 289 287 285 283 282 282 282 282 282 282 282 281
302 302 301 301 302 298 298 298 298 298 297 297 297 297 297 298 299 297 294 289 290 291 292 294 292 290 289 290 290 290 289 290 287 285 283 281 281 282 282 282 282 281 281 281
302 304 304 303 302 301 302 300 297 298 298 297 297 297 296 296 295 294 288 290 290 290 290 290 290 290 289 289 288 288 288 288 286 283 281 281 282 282 281 281 279 279 279 280
Wind_Speed
8 8 17 17 14 2 13 5 6 3 3 5 7 7 7 5 3 7 8 8 8 11 10 19 29 30 30 33 36 36 36 35 33 31 26 25 20 20 18 17 14 13 12 11
8 18 13 7 7 7 7 8 6 2 1 4 4 11 3 7 7 8 11 10 11 6 6 11 14 26 31 34 36 38 38 37 35 32 33 30 23 20 20 17 15 14 13 13
13 2 9 10 9 13 5 16 6 5 3 3 4 7 4 5 4 5 7 6 7 12 10 8 13 16 24 27 34 38 38 38 37 34 32 22 20 14 17 16 14 13 12 11
3 2 15 9 16 12 13 4 4 7 6 5 4 5 6 7 9 6 8 9 10 10 7 7 15 16 18 21 25 30 33 35 35 35 33 30 22 17 17 16 13 12 10 9
8 2 7 12 8 8 5 5 6 3 2 3 2 1 6 2 9 7 10 11 10 10 11 10 15 16 15 17 18 20 26 31 33 34 33 30 22 17 13 14 14 11 8 6
3 5 4 6 3 8 7 6 6 4 2 3 9 8 5 7 8 11 7 9 10 9 8 9 12 12 13 14 16 19 21 28 32 34 31 30 23 20 18 17 15 12 10 8
4 6 6 2 5 3 7 8 3 1 2 11 3 4 11 5 8 7 17 16 11 8 8 8 10 13 12 14 16 19 23 27 31 35 34 29 24 22 19 18 15 13 11 10
9 5 9 6 9 4 5 9 4 7 7 3 3 7 7 6 3 6 7 8 9 10 9 8 12 16 13 13 15 19 22 26 27 32 32 29 26 23 19 17 17 15 13 12
6 3 6 7 7 10 7 9 2 5 2 3 5 6 10 4 6 5 7 7 14 13 11 10 13 16 15 14 16 19 22 25 29 30 31 30 26 24 24 22 20 19 17 15
7 4 2 1 6 3 4 6 6 1 5 4 4 4 5 5 10 9 8 12 12 10 9 7 12 17 16 16 17 18 20 24 27 31 32 30 26 26 26 25 24 21 18 14
5 4 2 6 9 16 6 5 3 2 5 6 2 6 8 11 17 15 18 13 13 13 11 8 12 18 17 17 18 20 22 26 28 30 30 31 30 29 28 26 22 19 16 13
4 5 4 10 1 3 15 6 7 6 7 0 3 6 2 7 8 5 7 6 7 8 9 7 14 19 18 19 20 23 25 28 29 31 33 34 34 31 28 24 21 17 15 12
7 3 4 3 1 3 7 11 5 4 4 9 5 9 2 5 6 6 8 10 9 9 8 8 12 17 23 23 24 26 28 30 32 34 35 35 33 30 27 23 20 17 14 11
8 4 7 12 12 8 4 5 5 10 3 5 9 6 5 7 8 5 7 9 11 11 13 11 9 13 21 26 28 29 30 33 35 35 35 33 30 27 24 21 18 15 13 11
5 7 4 3 1 9 10 16 12 10 16 10 19 11 13 10 9 6 6 7 10 12 13 13 12 15 21 24 29 30 31 34 35 35 33 30 27 24 22 19 17 15 12 10
1 2 3 2 3 3 4 10 11 19 25 21 6 7 9 3 5 7 11 12 13 14 15 15 14 20 23 26 30 34 36 36 36 35 32 29 27 24 21 18 17 14 11 8
8 5 3 4 2 4 4 16 14 15 17 22 15 16 5 6 8 9 10 14 17 17 18 18 18 25 28 31 33 32 37 38 36 34 31 29 26 24 21 19 16 13 10 8
9 6 3 2 3 6 5 4 13 18 16 20 17 5 8 10 10 7 8 15 16 16 16 17 24 29 32 32 33 36 40 41 38 35 33 30 27 24 22 19 16 13 11 10
3 8 3 3 3 8 10 5 5 7 10 11 13 17 6 4 3 6 10 15 18 17 18 29 33 30 31 35 37 39 40 41 40 38 35 32 29 27 23 21 18 15 13 11
3 6 11 3 5 11 2 10 8 6 16 10 9 11 8 7 4 13 10 11 17 20 24 25 30 31 32 36 41 41 38 39 38 41 38 34 30 26 24 20 18 16 13 10
4 3 12 9 5 8 8 2 8 8 12 1 7 11 10 8 12 3 1 7 13 16 21 26 32 36 36 37 42 38 37 39 45 42 37 32 28 25 22 20 18 16 13 10
7 6 5 3 7 15 6 2 15 4 4 3 4 3 4 7 7 6 5 5 5 7 18 31 29 29 34 42 43 37 39 40 44 41 36 32 28 26 23 20 18 15 12 10
3 6 7 11 8 0 3 1 2 2 3 2 3 2 1 3 4 6 5 6 4 5 10 22 24 25 29 38 42 36 35 44 44 40 37 33 28 25 22 20 18 16 14 13
3 2 3 4 2 3 4 1 1 2 3 2 3 3 2 2 5 5 4 4 1 3 8 16 20 19 22 33 35 34 39 46 46 43 37 32 29 26 23 20 18 18 17 16
2 5 5 2 2 4 2 2 0 2 2 3 4 3 4 2 2 3 2 1 2 6 10 18 19 17 20 29 32 34 42 46 45 41 37 32 29 26 23 20 20 20 17 15
3 3 3 2 2 3 2 2 2 1 2 3 2 2 2 3 4 2 3 1 6 8 11 16 17 20 23 29 32 33 39 45 45 38 35 32 29 27 24 23 20 20 16 15
Wind_Direction
174 174 200 193 199 298 199 209 139 247 195 139 212 237 237 216 222 206 212 214 217 219 224 227 223 220 219 222 219 217 212 210 209 209 205 204 221 225 222 226 230 236 241 248
160 216 192 213 190 192 230 191 202 76 155 149 192 242 239 188 223 211 201 211 214 200 199 207 215 221 222 221 221 219 217 214 210 211 208 214 217 227 235 233 235 237 240 248
177 280 173 184 193 208 221 208 186 159 145 76 130 292 201 230 231 206 231 223 206 198 189 188 190 200 203 212 215 216 217 216 213 210 208 205 213 227 224 229 232 239 244 243
297 205 178 182 208 193 225 195 139 132 134 198 162 259 240 212 229 218 222 215 210 194 178 184 190 194 192 196 205 211 216 216 214 211 208 203 200 210 225 234 215 216 217 225
188 206 179 196 190 174 213 140 158 156 140 132 213 150 262 102 236 237 231 223 220 198 183 189 196 201 195 196 201 204 209 214 215 210 210 207 207 204 206 197 191 184 177 174
259 317 230 186 128 180 136 88 56 54 89 258 211 180 246 190 202 223 226 218 208 196 180 170 190 205 206 207 212 212 208 209 211 208 211 206 201 186 176 173 170 162 161 153
144 271 301 217 126 67 165 142 153 197 210 235 350 186 232 226 226 217 211 214 190 179 179 172 175 197 208 208 210 213 212 208 208 205 204 200 193 190 184 187 183 169 152 146
163 207 185 178 211 173 199 189 166 183 207 211 61 233 245 225 245 255 244 208 162 182 188 186 182 191 199 207 207 201 200 203 199 203 199 187 181 177 183 193 182 175 173 149
144 258 126 182 154 179 183 215 217 102 15 85 208 278 301 235 257 244 234 171 198 192 182 181 178 187 187 192 198 199 192 189 191 188 181 174 174 175 167 167 164 156 150 144
186 124 153 128 80 0 167 157 216 207 156 222 258 273 233 250 241 219 216 213 199 184 172 168 171 183 185 186 190 187 183 176 176 173 170 164 167 163 161 158 154 151 149 145
162 107 103 132 194 184 202 200 211 213 160 206 227 257 212 210 219 212 215 200 183 175 167 166 174 182 180 178 178 178 173 164 164 169 167 159 156 156 153 153 152 152 149 147
209 105 129 202 161 133 203 214 185 203 219 191 160 258 215 252 278 232 196 158 156 162 165 156 165 174 173 175 173 170 167 165 164 162 157 154 154 153 152 152 152 152 153 147
180 159 100 85 118 209 199 198 197 108 64 212 192 242 314 283 291 248 193 167 167 159 151 154 165 177 177 177 172 171 172 167 162 160 157 153 154 155 154 155 156 155 153 147
115 152 168 199 211 128 190 191 201 217 193 214 240 252 276 261 257 229 195 180 172 170 175 178 177 175 177 179 177 175 170 166 163 161 158 157 157 157 156 155 156 157 156 154
149 183 179 46 82 182 200 206 187 194 223 212 250 222 237 239 233 208 183 159 167 183 186 186 182 179 182 183 182 179 175 171 168 166 163 161 159 160 159 159 161 163 162 161
171 191 124 25 32 117 224 214 216 215 225 233 222 274 232 255 124 175 190 178 192 201 195 189 186 185 187 185 184 182 181 178 176 172 169 166 165 165 163 165 167 168 168 163
163 120 82 255 5 76 307 216 200 215 214 227 234 235 179 213 223 212 185 191 200 203 197 194 192 190 191 190 185 181 183 183 182 178 174 172 171 170 169 171 173 175 175 170
151 108 89 170 46 206 268 231 201 208 221 223 238 233 197 209 218 212 191 197 211 207 200 198 196 196 194 189 185 183 188 187 184 182 180 177 178 176 175 178 179 180 178 177
4 155 116 170 206 293 287 206 148 172 257 213 219 238 206 210 90 267 207 208 213 203 203 204 201 196 186 184 184 185 187 188 188 187 184 183 184 182 182 183 182 183 183 180
37 171 179 158 194 222 302 177 166 119 269 211 198 214 190 137 188 246 204 209 220 211 207 197 191 185 183 184 183 182 182 184 187 192 190 188 187 188 187 185 183 183 183 183
91 90 192 197 232 278 242 191 138 165 258 314 198 197 168 186 217 302 196 218 218 211 200 190 179 185 188 180 180 180 181 188 193 193 191 188 189 190 189 187 187 185 187 185
150 145 183 115 213 257 151 61 176 250 32 44 44 82 198 269 325 333 350 317 226 189 177 181 178 183 182 182 181 184 189 188 193 191 188 188 188 189 189 190 188 188 189 189
195 186 174 186 209 158 200 52 55 49 82 58 108 65 29 271 291 298 310 322 323 226 185 181 179 172 178 184 188 185 187 190 189 187 187 186 186 187 190 191 193 191 196 198
253 167 174 95 208 161 195 338 61 43 92 48 41 47 40 25 338 296 316 293 194 146 168 179 169 167 175 187 191 193 188 190 187 185 185 184 185 187 192 195 200 204 204 201
204 130 167 268 113 100 41 243 91 89 57 54 34 37 26 1 335 285 293 296 278 160 169 180 176 174 179 187 190 192 191 188 184 185 184 184 188 191 195 202 209 211 213 215
179 187 182 210 175 123 144 119 97 152 58 72 68 45 31 9 329 344 316 244 193 186 183 183 185 185 189 191 191 190 192 188 185 181 185 189 191 195 201 206 207 209 212 214